STARLINK-35932

Last updated on Fri Dec 19 2025 00:02:05 GMT+0000 (Coordinated Universal Time)

1 66526U 25265L 25352.66667824 .00029994 00000+0 72301-3 0 9995 2 66526 43.0005 19.5753 0001302 276.1014 136.3625 15.40677305 5836
UTC large
Height (km)
Speed (km/s)
/
Latitude / Longitude
Inclination (degrees)
Orbital Period (minutes)
Azimuth
Elevation
Range (km)
Doppler Factor

Next 0 passes for location: London (51.5072 / 0.1276)

Sorry there are no passes over London.